Tracking 25195 objects as of 20-Jan-2022
HD Live streaming from Space Station
objects crossing your sky now

CZ-2C DEB

Track CZ-2C DEB now!
10-day predictions


NORAD ID: 43520
Int'l Code: 2018-054C
Perigee: 390.8 km
Apogee: 398.5 km
Inclination: 35.0 °
Period: 92.3 minutes
Semi major axis: 6765 km
RCS: Unknown
Launch date: June 27, 2018
Source: People's Republic of China (PRC)
Launch site: Xichang Space Center, China (XSC)

Note: This is SATELLITE DEBRIS
aabbcc
Your satellite tracking list
Your tracking list is empty




NASA's NSSDC Master Catalog

Two Line Element Set (TLE):
1 43520U 18054C   22019.95418328  .00105257  00000-0  12408-2 0  9993
2 43520  34.9884 215.7661 0005695  33.7643 326.3445 15.60036398200539
Source of the keplerian elements: AFSPC